FENGYUN 1C DEB *

Satellite information

Favourite Embed

Satellite Type and Status

DEBRISIN ORBIT

Key statistics

Satellite FENGYUN 1C DEB * at a glance.

Uptime

9659

Days in orbit

Revolutions

≈ 14.2

Per day

Orbit

SSO

Sun Synchronous Orbit

Inclination

98.9

Latest

Satellite identification and parameters

Extended collection of information and parameters for FENGYUN 1C DEB *.

Object identification

Identified? True

Debris? True

Object name: FENGYUN 1C DEB *

International designator: 1999-025FCC

Object number (NORAD): 47104

Object ID (CCSDS): 47104

Country: PEOPLES REPUBLIC OF CHINA (PRC)

Current information (Y/N): Y

RCS size: SMALL

Orbital parameters

Period: 101.458 minutes

Inclination: 98.9213 deg

SMA: 7205.825 km

Apoapsis: 856.771 km

Periapsis: 798.61 km

RAAN: 291.924 deg

Eccentricy: 0.00403574

Argument of periapsis: 214.2174 deg

Mean anomaly: 145.64 deg

Mean motion: 14.1930967 rev/day

Mean motion (dot): 0.00000281 rev/day2

B* drag term: 0.00015428333 1/REarth

Two-line elements (TLE)

Creation date: Sept. 20, 2025, 8:33 a.m.

Reference frame: TEME

Reference center: EARTH

Epoch: Sept. 19, 2025, 9:16 p.m. UTC

TLE line 0: 0 FENGYUN 1C DEB *

TLE line 1: 1 47104U 99025FCC 25262.88652490 .00000281 00000-0 15428-3 0 9994

TLE line 2: 2 47104 98.9213 291.9240 0040357 214.2174 145.6400 14.19309670611836

Live tracking on map

Real-time ground track for satellite FENGYUN 1C DEB *.

In-orbit conjunctions

A list of the most updated potential collisions computed for object FENGYUN 1C DEB *.

Target Orbit TCA Probability of collision Miss distance Type
SL-3 DEB LEO 2025-09-02 07:34:16 0.0001456691 209.0 (m) DEBRIS
COSMOS 2263 LEO 2025-04-08 00:48:19 0.0001116305 698.0 (m) PAYLOAD

Associated space launch

Chinese polar orbiting meteorological satellite

FENGYUN 1C DEB * was lifted into orbit during the mission ‘Long March 4B | Feng Yun 1C’, on board a Long March 4B space rocket.

The launch took place on May 10, 1999, 1:33 a.m. from Launch Complex 7.

For more information about the launch, click the button.

Launch to space Long March 4B | Feng Yun 1C
Long March 4B | Feng Yun 1C

Agency: N/A

Status: Launch Successful

Launch date: May 10, 1999, 1:33 a.m. UTC

Rocket: Long March 4B

Launch pad: Launch Complex 7

Location: Taiyuan Satellite Launch Center, People's Republic of China

...

Latest news about this satellite

There are no fresh news available about this satellite. Check back as we update our databases every day.


Newsletter sign-up

Weekly statistics, charts and insights to help you stay on top of the space industry.